星链-30236 (STARLINK-30236 )

导读 | 豆包AI

STARLINK-30236是美国太空探索技术公司(SpaceX)星链互联网卫星星座中的一颗卫星,于2023年7月10日发射入轨。星链项目旨在为全球提供高速低延迟互联网覆盖,该卫星加入星座后,进一步扩充了星链卫星网络规模,助力服务全球更多地区用户,推动太空互联网基础设施建设。

基本信息
目录编号:
57300
目录名称:
STARLINK-30236
国际标识:
2023-096L
轨道中心:
EARTH
卫星名称:
星链-30236
卫星全名:
星链-30236 (STARLINK-30236 )
卫星状态:
在轨 (已飞行1025 天)
发射日期:
2023-07-10 UTC
国别 :
美国 (US)
星等 :
--
轨道信息
数据来源 国际轨道数据
星历时间: 2026-04-30T04:47:40+0800
19小时前
查看轨道信息
半长轴: 6861.135km
偏心率: 0.000148
轨道倾角: 43.007°
近地点辐角 290.027°
升交点赤经 294.197°
平近点角 70.042°
近地点: 481.982km
远地点: 484.014km
周期: 94.266分钟
每日圈数: 15.275973
详细信息
固有亮度:
5
最大亮度:
0.3
卫星平台:
Starlink v2.0 mini
覆盖范围:
全球
运营商:
太空探索技术公司
运营商所在国:
美国
制造商(研发单位):
太空探索技术公司
制造商所在国:
美国
使用方式:
暂无
卫星简介
星链(Starlink)计划是由太空探索技术公司(SpaceX)提出的一个巨型低轨卫星互联网星座项目,计划在2019年至2024年间在太空搭建由约1.2万颗卫星组成的“星链”网络,其中1584颗将部署在地球上空550千米处的近地轨道,并从2020年开始工作。该卫星仍在工作。
2D轨道图
3D轨道图
轨道高度分析图
轨道倾角分析图
轨道综合分析图
查看轨道综合分析图